When you browse on this site, cookies collect data to enhance your experience and personalize the content and advertising you see.
Visit our Privacy Policy to learn more. By continuing to use the site, you agree to this use of cookies and data.
  • In Romania
  • List of Countries
  • For 7 days
  • Water Temperature
  • Weather Map
  • Weather Widgets
  • user-avatar
    Login

    Hourly Weather Baicoi

    Today, 27 May, Wednesday

    Time Temperature Precipitation Wind Pressure Humidity
    00:00 +10°C° 0 mm 1 mps 739 mmHg 85%
    01:00 +9°C° 0 mm 1 mps 739 mmHg 85%
    02:00 +8°C° 0 mm 2 mps 739 mmHg 86%
    03:00 +8°C° 0 mm 2 mps 739 mmHg 86%
    04:00 +8°C° 0 mm 2 mps 739 mmHg 86%
    05:00 +8°C° 0 mm 2 mps 739 mmHg 86%
    06:00 +10°C° 0 mm 1 mps 740 mmHg 82%
    07:00 +12°C° 0 mm 1 mps 740 mmHg 78%
    08:00 +13°C° 0 mm 1 mps 740 mmHg 73%
    09:00 +14°C° 0.2 mm 2 mps 740 mmHg 69%
    10:00 +16°C° 0.2 mm 2 mps 740 mmHg 64%
    11:00 +17°C° 0.2 mm 2 mps 740 mmHg 59%
    12:00 +17°C° 0.2 mm 2 mps 739 mmHg 56%
    13:00 +18°C° 0.2 mm 2 mps 739 mmHg 53%
    14:00 +19°C° 0.2 mm 3 mps 738 mmHg 50%
    15:00 +18°C° 0 mm 2 mps 738 mmHg 50%
    16:00 +18°C° 0 mm 2 mps 738 mmHg 50%
    17:00 +18°C° 0 mm 2 mps 738 mmHg 50%
    18:00 +16°C° 0.2 mm 2 mps 738 mmHg 60%
    19:00 +14°C° 0.2 mm 2 mps 738 mmHg 69%
    20:00 +12°C° 0.2 mm 2 mps 738 mmHg 78%
    21:00 +12°C° 0.1 mm 2 mps 738 mmHg 80%
    22:00 +10°C° 0.1 mm 2 mps 738 mmHg 82%
    23:00 +10°C° 0.1 mm 2 mps 738 mmHg 83%

    Tomorrow, 28 May, Thursday

    Time Temperature Precipitation Wind Pressure Humidity
    00:00 +9°C° 0 mm 2 mps 738 mmHg 83%
    01:00 +9°C° 0 mm 2 mps 738 mmHg 83%
    02:00 +9°C° 0 mm 2 mps 737 mmHg 83%
    03:00 +9°C° 0 mm 2 mps 737 mmHg 83%
    04:00 +9°C° 0 mm 2 mps 737 mmHg 84%
    05:00 +8°C° 0 mm 2 mps 737 mmHg 84%
    06:00 +12°C° 0 mm 2 mps 737 mmHg 77%
    07:00 +14°C° 0 mm 2 mps 736 mmHg 70%
    08:00 +16°C° 0 mm 2 mps 736 mmHg 63%
    09:00 +17°C° 0.3 mm 2 mps 736 mmHg 59%
    10:00 +18°C° 0.3 mm 2 mps 736 mmHg 54%
    11:00 +19°C° 0.3 mm 2 mps 736 mmHg 50%
    12:00 +19°C° 0.3 mm 2 mps 735 mmHg 50%
    13:00 +20°C° 0.3 mm 2 mps 735 mmHg 49%
    14:00 +20°C° 0.3 mm 2 mps 734 mmHg 49%
    15:00 +20°C° 0.3 mm 2 mps 734 mmHg 51%
    16:00 +20°C° 0.3 mm 2 mps 734 mmHg 54%
    17:00 +19°C° 0.3 mm 2 mps 733 mmHg 57%
    18:00 +19°C° 0.1 mm 1 mps 733 mmHg 62%
    19:00 +16°C° 0.1 mm 1 mps 733 mmHg 67%
    20:00 +14°C° 0.1 mm 1 mps 733 mmHg 72%
    21:00 +14°C° 0.1 mm 1 mps 733 mmHg 75%
    22:00 +13°C° 0.1 mm 2 mps 734 mmHg 78%
    23:00 +12°C° 0.1 mm 2 mps 734 mmHg 80%

    Day after tomorrow, 29 May, Friday

    Time Temperature Precipitation Wind Pressure Humidity
    00:00 +12°C° 0 mm 2 mps 734 mmHg 81%
    01:00 +10°C° 0 mm 2 mps 733 mmHg 82%
    02:00 +10°C° 0 mm 2 mps 733 mmHg 82%
    03:00 +10°C° 0 mm 2 mps 733 mmHg 82%
    04:00 +10°C° 0 mm 2 mps 733 mmHg 82%
    05:00 +10°C° 0 mm 2 mps 734 mmHg 82%
    06:00 +13°C° 0 mm 1 mps 734 mmHg 76%
    07:00 +15°C° 0 mm 1 mps 734 mmHg 70%
    08:00 +18°C° 0 mm 1 mps 734 mmHg 64%
    09:00 +19°C° 0.3 mm 1 mps 734 mmHg 62%
    10:00 +20°C° 0.3 mm 1 mps 734 mmHg 60%
    11:00 +21°C° 0.3 mm 1 mps 734 mmHg 58%
    12:00 +21°C° 0.3 mm 1 mps 734 mmHg 57%
    13:00 +21°C° 0.3 mm 1 mps 733 mmHg 55%
    14:00 +21°C° 0.3 mm 2 mps 733 mmHg 54%
    15:00 +20°C° 0.4 mm 2 mps 733 mmHg 58%
    16:00 +20°C° 0.4 mm 2 mps 733 mmHg 61%
    17:00 +19°C° 0.4 mm 2 mps 733 mmHg 65%
    18:00 +18°C° 0.3 mm 2 mps 733 mmHg 70%
    19:00 +16°C° 0.3 mm 2 mps 733 mmHg 75%
    20:00 +15°C° 0.3 mm 2 mps 733 mmHg 80%
    21:00 +14°C° 0.3 mm 2 mps 733 mmHg 84%
    22:00 +13°C° 0.3 mm 2 mps 733 mmHg 87%
    23:00 +13°C° 0.3 mm 2 mps 733 mmHg 90%

    30 May, Saturday

    Time Temperature Precipitation Wind Pressure Humidity
    00:00 +12°C° 0.1 mm 2 mps 733 mmHg 90%
    01:00 +12°C° 0.1 mm 2 mps 733 mmHg 89%
    02:00 +12°C° 0.1 mm 1 mps 733 mmHg 89%
    03:00 +11°C° 0 mm 1 mps 733 mmHg 89%
    04:00 +11°C° 0 mm 1 mps 733 mmHg 89%
    05:00 +11°C° 0 mm 1 mps 733 mmHg 89%
    06:00 +13°C° 0 mm 1 mps 733 mmHg 83%
    07:00 +14°C° 0 mm 1 mps 734 mmHg 77%
    08:00 +16°C° 0 mm 1 mps 734 mmHg 72%
    09:00 +17°C° 0.4 mm 2 mps 734 mmHg 70%
    10:00 +18°C° 0.4 mm 2 mps 734 mmHg 69%
    11:00 +19°C° 0.4 mm 2 mps 734 mmHg 68%
    12:00 +20°C° 2 mm 1 mps 733 mmHg 68%
    13:00 +20°C° 2 mm 1 mps 733 mmHg 68%
    14:00 +21°C° 2 mm 1 mps 733 mmHg 68%
    15:00 +21°C° 0.9 mm 1 mps 733 mmHg 67%
    16:00 +21°C° 0.9 mm 1 mps 732 mmHg 65%
    17:00 +20°C° 0.9 mm 1 mps 732 mmHg 64%
    18:00 +19°C° 0.2 mm 1 mps 732 mmHg 69%
    19:00 +18°C° 0.2 mm 1 mps 732 mmHg 73%
    20:00 +15°C° 0.2 mm 1 mps 732 mmHg 78%
    21:00 +14°C° 0 mm 1 mps 733 mmHg 79%
    22:00 +14°C° 0 mm 2 mps 733 mmHg 81%
    23:00 +13°C° 0 mm 2 mps 733 mmHg 83%

    31 May, Sunday

    Time Temperature Precipitation Wind Pressure Humidity
    00:00 +13°C° 0 mm 2 mps 733 mmHg 83%
    01:00 +12°C° 0 mm 2 mps 733 mmHg 83%
    02:00 +12°C° 0 mm 2 mps 733 mmHg 84%
    03:00 +12°C° 0 mm 2 mps 733 mmHg 84%
    04:00 +12°C° 0 mm 2 mps 733 mmHg 84%
    05:00 +12°C° 0 mm 2 mps 733 mmHg 84%
    06:00 +13°C° 0 mm 1 mps 733 mmHg 79%
    07:00 +15°C° 0 mm 1 mps 733 mmHg 74%
    08:00 +18°C° 0 mm 1 mps 733 mmHg 68%
    09:00 +19°C° 0.4 mm 1 mps 733 mmHg 68%
    10:00 +20°C° 0.4 mm 1 mps 733 mmHg 67%
    11:00 +21°C° 0.4 mm 1 mps 733 mmHg 67%
    12:00 +21°C° 1.3 mm 1 mps 733 mmHg 65%
    13:00 +22°C° 1.3 mm 1 mps 733 mmHg 64%
    14:00 +21°C° 1.3 mm 2 mps 732 mmHg 62%
    15:00 +22°C° 0.6 mm 1 mps 732 mmHg 62%
    16:00 +22°C° 0.6 mm 1 mps 732 mmHg 62%
    17:00 +22°C° 0.6 mm 1 mps 732 mmHg 62%
    18:00 +20°C° 0.2 mm 1 mps 732 mmHg 67%
    19:00 +18°C° 0.2 mm 1 mps 732 mmHg 72%
    20:00 +16°C° 0.2 mm 1 mps 732 mmHg 77%
    21:00 +15°C° 0.1 mm 1 mps 733 mmHg 79%
    22:00 +14°C° 0.1 mm 2 mps 733 mmHg 81%
    23:00 +13°C° 0.1 mm 2 mps 733 mmHg 84%

    1 June, Monday

    Time Temperature Precipitation Wind Pressure Humidity
    00:00 +13°C° 0 mm 2 mps 733 mmHg 83%
    01:00 +13°C° 0 mm 2 mps 733 mmHg 83%
    02:00 +12°C° 0 mm 2 mps 733 mmHg 82%
    03:00 +12°C° 0 mm 2 mps 733 mmHg 82%
    04:00 +12°C° 0 mm 2 mps 733 mmHg 81%
    05:00 +12°C° 0 mm 2 mps 733 mmHg 81%
    06:00 +14°C° 0 mm 2 mps 733 mmHg 75%
    07:00 +16°C° 0 mm 2 mps 734 mmHg 69%
    08:00 +18°C° 0 mm 2 mps 734 mmHg 64%
    09:00 +19°C° 0.5 mm 2 mps 734 mmHg 64%
    10:00 +20°C° 0.5 mm 2 mps 734 mmHg 64%
    11:00 +21°C° 0.5 mm 2 mps 734 mmHg 65%
    12:00 +21°C° 2.1 mm 2 mps 734 mmHg 66%
    13:00 +21°C° 2.1 mm 2 mps 733 mmHg 67%
    14:00 +21°C° 2.1 mm 3 mps 733 mmHg 68%
    15:00 +21°C° 1.7 mm 2 mps 733 mmHg 71%
    16:00 +20°C° 1.7 mm 2 mps 733 mmHg 73%
    17:00 +20°C° 1.7 mm 2 mps 733 mmHg 75%
    18:00 +18°C° 0.2 mm 2 mps 733 mmHg 78%
    19:00 +17°C° 0.2 mm 2 mps 733 mmHg 81%
    20:00 +16°C° 0.2 mm 2 mps 733 mmHg 84%
    21:00 +15°C° 0.2 mm 2 mps 734 mmHg 85%
    22:00 +15°C° 0.2 mm 2 mps 734 mmHg 87%
    23:00 +14°C° 0.2 mm 2 mps 734 mmHg 88%
    Show more